North Myrtle Beach, SC

3:45 AM EST on December 09, 2019 (GMT -0500)
Grand Strand

Weather History for KCRE - October, 2019

Change the Weather History Date:

Thursday, October 3, 2019

  Actual Average Record
Temperature  
Mean Temperature 81 °F 70 °F  
Max Temperature 89 °F 79 °F 90 °F (1989)
Min Temperature 73 °F 61 °F 41 °F (1946)
Degree Days  
Heating Degree Days 0 1  
Month to date heating degree days 0 3  
Since 1 July heating degree days 0 7  
Cooling Degree Days 16 6  
Month to date cooling degree days 42 18  
Year to date cooling degree days 2225 1802  
Growing Degree Days 31 (Base 50)    
Moisture  
Dew Point 74 °F    
Average Humidity 75    
Maximum Humidity 93    
Minimum Humidity 56    
Precipitation  
Precipitation 0.00 in 0.14 in 0.53 in (2004)
Month to date precipitation 0.00 0.45  
Year to date precipitation 42.57 42.08  
Sea Level Pressure  
Sea Level Pressure 30.00 in    
Wind  
Wind Speed 7 mph (SW)    
Max Wind Speed 16 mph    
Max Gust Speed 22 mph    
Visibility 10 miles    
Events      
T = Trace of Precipitation, MM = Missing Value Source: NWS Daily Summary

Daily Weather History Graph

Daily Weather History Graph

Search for Another Location

Airport or City:

Astronomy

Oct. 03, 2019 Rise Set
Actual Time 7:10 AM EDT 6:56 PM EDT
Civil Twilight 6:45 AM EDT 7:21 PM EDT
Nautical Twilight 6:16 AM EDT 7:50 PM EDT
Astronomical Twilight 5:47 AM EDT 8:19 PM EDT
Moon 12:26 PM EDT (10/3) 10:48 PM EDT (10/3)
Length of Visible Light 12h 36m
Length of Day
11h 46m
Waxing Crescent, 29% of the Moon is Illuminated
Oct 3
Waxing Crescent
Oct 5
First Quarter
Oct 13
Full
Oct 21
Last Quarter
Oct 27
New

Hourly Weather History & Observations

Time (EDT) Temp. Heat Index Dew Point Humidity Pressure Visibility Wind Dir Wind Speed Gust Speed Precip Events Conditions
12:53 AM 79.0 °F - 73.0 °F 82% 29.99 in 10.0 mi SW 9.2 mph - N/A   Clear
1:53 AM 75.9 °F - 72.0 °F 87% 29.99 in 10.0 mi West 3.5 mph - N/A   Clear
2:53 AM 75.9 °F - 71.1 °F 85% 29.98 in 10.0 mi WSW 3.5 mph - N/A   Clear
3:53 AM 75.0 °F - 72.0 °F 90% 29.99 in 10.0 mi West 3.5 mph - N/A   Clear
4:53 AM 73.9 °F - 71.1 °F 91% 29.99 in 10.0 mi West 3.5 mph - N/A   Clear
5:53 AM 73.9 °F - 71.1 °F 91% 30.00 in 10.0 mi Calm Calm - N/A   Partly Cloudy
6:53 AM 73.9 °F - 71.1 °F 91% 30.01 in 10.0 mi Calm Calm - N/A   Scattered Clouds
7:53 AM 75.0 °F - 72.0 °F 90% 30.03 in 10.0 mi Calm Calm - N/A   Clear
8:53 AM 79.0 °F - 72.0 °F 79% 30.04 in 10.0 mi WNW 5.8 mph - N/A   Clear
9:53 AM 81.0 °F 85.2 °F 72.0 °F 74% 30.04 in 10.0 mi WSW 3.5 mph - N/A   Clear
10:53 AM 84.0 °F 89.0 °F 71.1 °F 65% 30.04 in 10.0 mi SW 5.8 mph - N/A   Clear
11:53 AM 89.1 °F 95.0 °F 71.1 °F 55% 30.02 in 10.0 mi NW 4.6 mph - N/A   Clear
12:53 PM 87.1 °F 95.4 °F 73.9 °F 65% 30.00 in 10.0 mi South 9.2 mph - N/A   Clear
1:53 PM 87.1 °F 96.3 °F 75.0 °F 67% 29.99 in 10.0 mi South 10.4 mph - N/A   Clear
2:53 PM 87.1 °F 95.4 °F 73.9 °F 65% 29.98 in 10.0 mi SSW 13.8 mph - N/A   Clear
3:53 PM 86.0 °F 96.0 °F 75.9 °F 72% 29.97 in 10.0 mi SSW 15.0 mph - N/A   Clear
4:53 PM 86.0 °F 95.1 °F 75.0 °F 70% 29.96 in 10.0 mi SSW 12.7 mph - N/A   Clear
5:53 PM 84.0 °F 92.6 °F 75.9 °F 76% 29.97 in 10.0 mi SSW 11.5 mph - N/A   Clear
6:53 PM 82.0 °F 89.4 °F 75.9 °F 82% 29.98 in 10.0 mi SSW 11.5 mph - N/A   Clear
7:53 PM 82.0 °F 89.4 °F 75.9 °F 82% 29.98 in 10.0 mi SSW 10.4 mph - N/A   Clear
8:53 PM 81.0 °F 87.9 °F 77.0 °F 88% 29.99 in 10.0 mi SSW 11.5 mph - N/A   Clear
9:53 PM 81.0 °F 87.9 °F 77.0 °F 88% 30.01 in 10.0 mi SW 11.5 mph - N/A   Clear
10:35 PM 81.0 °F 87.9 °F 77.0 °F 88% 30.01 in 10.0 mi SW 11.5 mph - N/A   Partly Cloudy
10:53 PM 81.0 °F 87.9 °F 77.0 °F 88% 30.02 in 10.0 mi SW 11.5 mph - N/A   Clear
11:53 PM 80.1 °F 85.8 °F 77.0 °F 90% 30.01 in 10.0 mi SW 9.2 mph - N/A   Clear